TimeCDT,TemperatureF,Dew PointF,Humidity,Sea Level PressureIn,VisibilityMPH,Wind Direction,Wind SpeedMPH,Gust SpeedMPH,PrecipitationIn,Events,Conditions,WindDirDegrees,DateUTC
12:15 AM,68.2,65.5,91,30.04,10.0,Calm,Calm,-,0.01,Rain,Light Rain,0,2013-06-16 05:15:00
12:35 AM,68.0,65.5,92,30.01,10.0,Calm,Calm,-,0.01,Rain,Light Rain,0,2013-06-16 05:35:00
12:55 AM,68.2,65.8,92,30.01,10.0,SSE,5.8,-,0.01,Rain,Light Rain,160,2013-06-16 05:55:00
1:15 AM,68.0,65.5,92,30.01,10.0,South,4.6,-,N/A,Rain,Light Rain,180,2013-06-16 06:15:00
1:35 AM,68.0,65.7,92,29.99,10.0,South,5.8,-,N/A,,Mostly Cloudy,170,2013-06-16 06:35:00
1:55 AM,68.0,65.5,92,29.99,10.0,South,10.4,-,N/A,Rain,Light Rain,170,2013-06-16 06:55:00
2:15 AM,68.0,65.5,92,29.99,10.0,South,8.1,-,N/A,,Mostly Cloudy,180,2013-06-16 07:15:00
2:35 AM,68.0,65.3,91,29.98,10.0,South,5.8,-,N/A,Rain,Light Rain,190,2013-06-16 07:35:00
2:55 AM,68.0,65.3,91,29.96,10.0,SSW,3.5,-,0.01,Rain,Light Rain,210,2013-06-16 07:55:00
3:15 AM,68.0,65.3,91,29.96,10.0,South,5.8,-,0.01,Rain,Light Rain,190,2013-06-16 08:15:00
3:35 AM,68.0,65.3,91,29.96,10.0,South,9.2,-,0.02,,Light Drizzle,170,2013-06-16 08:35:00
3:55 AM,68.0,65.5,92,29.97,10.0,South,6.9,-,0.02,,Scattered Clouds,180,2013-06-16 08:55:00
4:15 AM,68.2,65.8,92,29.97,10.0,South,5.8,-,N/A,,Light Drizzle,190,2013-06-16 09:15:00
4:35 AM,68.2,66.0,93,29.97,10.0,South,4.6,-,N/A,,Scattered Clouds,190,2013-06-16 09:35:00
4:55 AM,68.4,65.7,91,29.97,10.0,SSW,5.8,-,N/A,,Mostly Cloudy,200,2013-06-16 09:55:00
5:15 AM,68.4,65.5,90,29.97,10.0,South,3.5,-,N/A,,Mostly Cloudy,190,2013-06-16 10:15:00
5:35 AM,68.4,65.7,91,29.98,10.0,Calm,Calm,-,N/A,,Mostly Cloudy,0,2013-06-16 10:35:00
5:55 AM,68.4,65.7,91,29.98,10.0,South,4.6,-,N/A,Rain,Light Rain,190,2013-06-16 10:55:00
6:15 AM,68.4,65.7,91,30.00,10.0,SSW,4.6,-,N/A,,Overcast,200,2013-06-16 11:15:00
6:35 AM,68.9,65.7,89,30.00,10.0,SW,4.6,-,N/A,,Overcast,220,2013-06-16 11:35:00
6:55 AM,69.3,66.0,89,30.00,10.0,SW,4.6,-,N/A,,Overcast,220,2013-06-16 11:55:00
7:15 AM,69.8,66.2,88,30.00,10.0,SW,5.8,-,N/A,,Overcast,230,2013-06-16 12:15:00
7:35 AM,70.2,66.2,87,30.00,10.0,SSW,5.8,-,N/A,,Overcast,200,2013-06-16 12:35:00
7:55 AM,70.3,66.6,88,30.00,10.0,SSW,6.9,-,N/A,,Overcast,210,2013-06-16 12:55:00
8:15 AM,70.9,67.1,88,30.00,10.0,SSW,4.6,-,N/A,,Mostly Cloudy,200,2013-06-16 13:15:00
8:35 AM,72.5,67.5,84,30.00,10.0,SSW,8.1,-,N/A,,Scattered Clouds,200,2013-06-16 13:35:00
8:55 AM,74.1,67.8,81,30.00,10.0,SSW,6.9,-,N/A,,Clear,210,2013-06-16 13:55:00
9:15 AM,73.9,67.6,81,30.00,10.0,SSW,5.8,-,N/A,,Scattered Clouds,210,2013-06-16 14:15:00
9:35 AM,74.7,68.2,80,30.00,10.0,SSW,5.8,-,N/A,,Mostly Cloudy,210,2013-06-16 14:35:00
9:55 AM,75.0,68.4,80,30.00,10.0,SW,4.6,-,N/A,,Overcast,220,2013-06-16 14:55:00
10:15 AM,74.5,68.0,80,30.00,10.0,WSW,5.8,-,N/A,,Overcast,240,2013-06-16 15:15:00
10:35 AM,74.8,68.2,80,30.00,10.0,SSW,6.9,-,N/A,,Overcast,200,2013-06-16 15:35:00
10:55 AM,75.7,68.9,79,29.99,10.0,South,5.8,-,N/A,,Mostly Cloudy,190,2013-06-16 15:55:00
11:15 AM,76.5,69.4,79,29.99,10.0,South,4.6,-,N/A,,Mostly Cloudy,190,2013-06-16 16:15:00
11:35 AM,77.0,68.9,76,29.99,10.0,SW,4.6,-,N/A,,Mostly Cloudy,220,2013-06-16 16:35:00
11:55 AM,77.0,69.3,77,29.98,10.0,SSW,4.6,-,N/A,,Mostly Cloudy,200,2013-06-16 16:55:00
12:15 PM,77.7,69.3,75,29.99,10.0,WSW,3.5,-,N/A,,Mostly Cloudy,240,2013-06-16 17:15:00
12:35 PM,77.4,69.6,77,29.99,10.0,SW,5.8,-,N/A,,Overcast,220,2013-06-16 17:35:00
12:55 PM,77.5,69.3,76,29.99,10.0,South,8.1,-,N/A,,Overcast,170,2013-06-16 17:55:00
1:15 PM,77.0,69.6,78,29.99,10.0,South,6.9,-,N/A,,Overcast,180,2013-06-16 18:15:00
1:35 PM,77.5,69.6,76,29.98,10.0,SSW,6.9,-,N/A,,Overcast,200,2013-06-16 18:35:00
1:55 PM,78.6,69.6,74,29.97,10.0,SSW,6.9,-,N/A,,Overcast,210,2013-06-16 18:55:00
2:15 PM,78.8,69.8,74,29.98,10.0,SW,4.6,-,N/A,,Overcast,230,2013-06-16 19:15:00
2:35 PM,79.5,70.3,73,29.97,10.0,South,5.8,-,N/A,,Overcast,190,2013-06-16 19:35:00
2:55 PM,79.2,70.3,74,29.98,10.0,SSW,8.1,-,N/A,,Mostly Cloudy,210,2013-06-16 19:55:00
3:15 PM,79.9,70.5,73,29.97,10.0,SSW,5.8,-,N/A,,Mostly Cloudy,200,2013-06-16 20:15:00
3:35 PM,80.2,70.3,72,29.96,10.0,SW,6.9,-,N/A,,Scattered Clouds,230,2013-06-16 20:35:00
3:55 PM,80.2,70.9,73,29.96,10.0,SW,5.8,-,N/A,,Overcast,230,2013-06-16 20:55:00
4:15 PM,79.7,70.9,74,29.97,10.0,SSW,6.9,-,N/A,,Overcast,210,2013-06-16 21:15:00
4:35 PM,80.1,70.0,71,29.96,10.0,West,4.6,-,N/A,,Overcast,270,2013-06-16 21:35:00
4:55 PM,80.4,70.2,71,29.96,10.0,WNW,5.8,-,N/A,,Overcast,290,2013-06-16 21:55:00
5:15 PM,81.0,69.8,69,29.96,10.0,West,4.6,-,N/A,,Mostly Cloudy,260,2013-06-16 22:15:00
5:35 PM,80.8,70.2,70,29.95,10.0,West,5.8,-,N/A,,Scattered Clouds,270,2013-06-16 22:35:00
5:55 PM,81.5,70.3,69,29.95,10.0,NW,4.6,-,N/A,,Scattered Clouds,310,2013-06-16 22:55:00
6:15 PM,81.3,70.2,69,29.95,10.0,NW,5.8,-,N/A,,Clear,320,2013-06-16 23:15:00
6:35 PM,81.5,70.0,68,29.94,10.0,NW,3.5,-,N/A,,Clear,310,2013-06-16 23:35:00
6:55 PM,81.0,70.2,70,29.95,10.0,NNW,4.6,-,N/A,,Clear,340,2013-06-16 23:55:00
7:15 PM,80.8,70.3,70,29.94,10.0,North,5.8,-,N/A,,Clear,350,2013-06-17 00:15:00
7:35 PM,80.6,70.5,71,29.94,10.0,NNW,4.6,-,N/A,,Clear,340,2013-06-17 00:35:00
7:55 PM,80.2,70.2,71,29.94,10.0,Calm,Calm,-,N/A,,Clear,0,2013-06-17 00:55:00
8:15 PM,79.5,70.9,75,29.93,10.0,Calm,Calm,-,N/A,,Clear,0,2013-06-17 01:15:00
8:35 PM,77.7,71.6,81,29.93,10.0,Calm,Calm,-,N/A,,Clear,0,2013-06-17 01:35:00
8:55 PM,76.3,72.1,87,29.94,10.0,SSE,3.5,-,N/A,,Clear,160,2013-06-17 01:55:00
9:15 PM,75.4,70.7,85,29.94,10.0,South,3.5,-,N/A,,Clear,170,2013-06-17 02:15:00
9:35 PM,75.4,70.7,85,29.96,10.0,Calm,Calm,-,N/A,,Clear,0,2013-06-17 02:35:00
9:55 PM,74.8,70.5,86,29.98,10.0,Calm,Calm,-,N/A,,Clear,0,2013-06-17 02:55:00
10:15 PM,75.2,70.7,86,29.99,10.0,West,3.5,-,N/A,,Clear,280,2013-06-17 03:15:00
10:35 PM,74.3,70.3,87,29.98,7.0,Calm,Calm,-,N/A,,Clear,0,2013-06-17 03:35:00
10:55 PM,72.7,70.2,92,29.97,4.0,Calm,Calm,-,N/A,,Clear,0,2013-06-17 03:55:00
11:15 PM,73.2,70.2,90,29.98,7.0,Calm,Calm,-,N/A,,Clear,0,2013-06-17 04:15:00
11:35 PM,72.5,69.8,91,29.97,5.0,Calm,Calm,-,N/A,,Clear,0,2013-06-17 04:35:00
11:55 PM,72.5,69.8,91,29.99,5.0,NW,5.8,-,N/A,,Clear,320,2013-06-17 04:55:00